CZ-6A DEB, 54463

Orbit data source: Space-Track

CZ-6A DEB, 54463 is space debris in SSO originally from a launch on Fri, 11 Nov 2022 UTC launched from the Taiyaun Space Center, China (TSC). Debris objects in space refer to the collection of defunct objects orbiting the Earth. Examples of debris include non-operational satellites, rocket bodies, and fragments generated from explosions, collisions, or faulty payload assembly.

Loading next visibility...
Identifier
54463, 2022-151GP
Orbit
SSO
Country
Flag of CNCN / PRC
Related business
Manufacturer
SAST
Mission
Spacecraft
Bus & Motor
Unknown
Mass
Unknown
Launch date (UTC)
2022-11-11 (4 years ago)
Launch vehicle
Unknown
Launch site
Taiyaun Space Center, China (TSC)
Object type
Payload
Rocket body
Debris
Shape & HBR
Unknown shape, 0.1 m
Radar Cross Section
Medium (>0.1 m² and <1 m²)

Expand to show TLE details & history
Last TLE update: 2 days ago

TLE from 2 days ago
0 CZ-6A DEB
1 54463U 22151GP  26171.20294613  .00004596  00000-0  70151-3 0  9998
2 54463  98.6566 263.0630 0123816 206.5388 152.9442 14.69308751191649
Epoch: 2026-06-20T04:52Z
TLE epoch observation values (Epoch: 2026-06-20T04:52:14.545Z)
Latitude
-0.00007°
Longitude
-78.41854°
Altitude
744.138 km
Speed
7.441 km/s
True Right ascension
17h 32m 15s
True Declination
0° 00' 00"
Sunlit
Object was in full shadow at epoch
Visualization orbit readout
Latitude
Unknown
Longitude
Unknown
Altitude
Unknown
Speed
Unknown
Apparent Right ascension
Unknown
Apparent Declination
Unknown
Sunlit
N/A
Visualization observer readout
Local Sidereal Time
21:32:39
Azimuth
Unknown
Elevation
Unknown
Doppler factor
Unknown
Orbital elements
Apogee altitude
747.513 km
Perigee altitude
573.218 km
Semi-major axis
7,038.502 km
Eccentricity
0.01238
Inclination
98.6566°
RAAN
263.063°
Arg. of periapsis
206.5388°
True anomaly
153.58077°
Mean anomaly
152.9442°
Eccentric anomaly
153.26336°
Mean motion
3.67555 °/min
Orbital period
97.94 mins
BSTAR
0.00070151
Loading maneuver chart data...
Computing Atmospheric mass density...
Loading historical data...
Loading historical data...
Loading historical data...
Loading historical data...
Loading historical data...
Loading historical data...
Loading historical data...

Documentation

Showing up to 5 results
|